GW5258 Weather Reports


Display with metric or nautical units.
time (UTC)temp
F
wind
direction
speed
MPH
gust
MPH
rain 1hr
in
rain 24hr
in
rain mn
in
humidity
%
barometer
mb
20260503005740 46 197 0.0 0.0 0.00 0.00 0.00 74 1017.8
20260503005237 47 197 0.0 0.0 0.00 0.00 0.00 75 1017.8
20260503004733 47 197 0.0 0.0 0.00 0.00 0.00 72 1017.7
20260503004231 47 197 0.0 0.0 0.00 0.00 0.00 74 1017.8
20260503003728 47 197 0.0 0.0 0.00 0.00 0.00 72 1017.6
20260503003225 48 197 0.0 0.0 0.00 0.00 0.00 71 1017.6
20260503002722 48 197 0.0 0.0 0.00 0.00 0.00 70 1017.3
20260503002219 49 197 0.0 0.0 0.00 0.00 0.00 66 1017.5
20260503001715 49 196 0.0 0.0 0.00 0.00 0.00 67 1017.3
20260503001212 49 196 0.0 0.0 0.00 0.00 0.00 65 1017.3
20260503000710 50 203 0.0 0.0 0.00 0.00 0.00 59 1017.4
20260503000207 50 203 0.0 0.0 0.00 0.00 0.00 60 1017.2
20260502235703 51 222 0.0 0.0 0.00 0.00 0.00 55 1017.3
20260502235201 52 105 0.0 0.0 0.00 0.00 0.00 53 1017.2
20260502234657 51 98 2.0 3.0 0.00 0.00 0.00 51 1017.2
20260502234155 51 223 0.0 1.0 0.00 0.00 0.00 59 1017.4
20260502233650 51 177 0.0 1.0 0.00 0.00 0.00 54 1016.9
20260502233147 51 109 1.0 1.0 0.00 0.00 0.00 55 1016.9
20260502232643 52 216 0.0 1.0 0.00 0.00 0.00 55 1017.0
20260502232141 52 237 0.0 0.0 0.00 0.00 0.00 54 1017.0
20260502231637 52 237 0.0 0.0 0.00 0.00 0.00 53 1017.0
20260502231135 53 238 0.0 0.0 0.00 0.00 0.00 49 1016.9
20260502230633 53 230 1.0 2.0 0.00 0.00 0.00 45 1016.9
20260502230132 53 220 1.0 1.0 0.00 0.00 0.00 45 1017.0
20260502225626 53 102 1.0 2.0 0.00 0.00 0.00 46 1016.9
20260502225125 53 96 2.0 2.0 0.00 0.00 0.00 44 1017.0
20260502224620 54 230 0.0 2.0 0.00 0.00 0.00 45 1016.7
20260502224117 54 144 0.0 1.0 0.00 0.00 0.00 43 1016.7
20260502223615 54 74 1.0 1.0 0.00 0.00 0.00 42 1016.9
20260502223113 54 298 2.0 3.0 0.00 0.00 0.00 42 1016.8
20260502222610 54 196 0.0 2.0 0.00 0.00 0.00 45 1016.8
20260502222106 54 125 1.0 1.0 0.00 0.00 0.00 46 1017.0
20260502221602 54 88 0.0 2.0 0.00 0.00 0.00 45 1016.7
20260502221100 54 77 2.0 3.0 0.00 0.00 0.00 42 1016.8
20260502220555 55 36 2.0 3.0 0.00 0.00 0.00 46 1016.7
20260502220052 55 133 0.0 4.0 0.00 0.00 0.00 43 1016.8
20260502215549 55 293 1.0 3.0 0.00 0.00 0.00 44 1016.7
20260502215046 54 226 3.0 3.0 0.00 0.00 0.00 45 1016.7
20260502214543 54 58 2.0 3.0 0.00 0.00 0.00 44 1016.5
20260502214041 54 206 1.0 1.0 0.00 0.00 0.00 50 1016.8
20260502213537 54 291 0.0 1.0 0.00 0.00 0.00 45 1016.4
20260502213035 54 13 2.0 4.0 0.00 0.00 0.00 44 1016.6
20260502212534 55 82 1.0 2.0 0.00 0.00 0.00 47 1016.4
20260502212031 55 212 1.0 2.0 0.00 0.00 0.00 45 1016.4
20260502211526 55 210 0.0 2.0 0.00 0.00 0.00 45 1016.4
20260502211024 55 242 1.0 1.0 0.00 0.00 0.00 46 1016.6
20260502210521 54 226 0.0 1.0 0.00 0.00 0.00 44 1016.5
20260502210018 54 45 2.0 3.0 0.00 0.00 0.00 47 1016.5
20260502205514 54 27 0.0 2.0 0.00 0.00 0.00 45 1016.5
20260502205011 54 39 3.0 7.0 0.00 0.00 0.00 44 1016.5
20260502204508 55 24 1.0 4.0 0.00 0.00 0.00 43 1016.7
20260502204007 55 7 2.0 6.0 0.00 0.00 0.00 43 1016.6
20260502203503 55 320 1.0 4.0 0.00 0.00 0.00 44 1016.8
20260502203000 55 49 0.0 2.0 0.00 0.00 0.00 43 1016.7
20260502202456 54 191 2.0 2.0 0.00 0.00 0.00 42 1017.0
20260502201955 54 187 2.0 3.0 0.00 0.00 0.00 43 1016.5
20260502201450 54 226 2.0 2.0 0.00 0.00 0.00 48 1016.6
20260502200947 54 220 2.0 3.0 0.00 0.00 0.00 43 1016.8
20260502200443 54 75 9.0 13.0 0.00 0.00 0.00 41 1016.6
20260502195940 55 222 1.0 2.0 0.00 0.00 0.00 43 1016.7
20260502195437 55 269 0.0 2.0 0.00 0.00 0.00 46 1016.9
20260502194934 56 107 1.0 6.0 0.00 0.00 0.00 43 1016.9
20260502194431 56 315 0.0 1.0 0.00 0.00 0.00 50 1016.8
20260502193926 55 85 3.0 6.0 0.00 0.00 0.00 41 1017.0
20260502193424 55 196 1.0 2.0 0.00 0.00 0.00 44 1016.9
20260502192919 55 210 1.0 6.0 0.00 0.00 0.00 41 1017.3
20260502192416 57 327 3.0 3.0 0.00 0.00 0.00 40 1017.3
20260502191914 56 148 1.0 3.0 0.00 0.00 0.00 43 1017.3
20260502191411 55 52 1.0 3.0 0.00 0.00 0.00 41 1017.3
20260502190909 55 266 3.0 3.0 0.00 0.00 0.00 46 1017.4
20260502190406 54 231 1.0 3.0 0.00 0.00 0.00 44 1017.4
20260502185902 54 93 0.0 2.0 0.00 0.00 0.00 45 1017.5
20260502185357 54 47 0.0 2.0 0.00 0.00 0.00 45 1017.5
20260502184855 54 75 2.0 2.0 0.00 0.00 0.00 42 1017.9
20260502184350 54 88 0.0 3.0 0.00 0.00 0.00 41 1017.5
20260502183847 53 113 1.0 2.0 0.00 0.00 0.00 45 1017.5
20260502183343 54 33 5.0 8.0 0.00 0.00 0.00 41 1017.6
20260502182838 54 229 1.0 7.0 0.00 0.00 0.00 43 1017.6
20260502182334 55 101 1.0 2.0 0.00 0.00 0.00 42 1017.5
20260502181830 53 77 1.0 2.0 0.00 0.00 0.00 45 1017.4
20260502181330 53 87 0.0 3.0 0.00 0.00 0.00 42 1017.5
20260502180827 54 318 1.0 2.0 0.00 0.00 0.00 46 1017.4
20260502180324 54 317 0.0 2.0 0.00 0.00 0.00 43 1017.6
20260502170237 55 80 2.0 8.0 0.00 0.00 0.00 42 1018.1
20260502164225 53 44 0.0 2.0 0.00 0.00 0.00 45 1018.1
20260502163720 53 62 2.0 4.0 0.00 0.00 0.00 44 1018.1
20260502163217 54 84 1.0 2.0 0.00 0.00 0.00 46 1018.1
20260502162714 54 232 3.0 4.0 0.00 0.00 0.00 43 1018.0
20260502162211 54 72 5.0 7.0 0.00 0.00 0.00 43 1018.1
20260502161708 53 97 7.0 14.0 0.00 0.00 0.00 46 1018.3
20260502161204 54 55 3.0 3.0 0.00 0.00 0.00 46 1018.2
20260502160703 55 53 1.0 3.0 0.00 0.00 0.00 44 1018.1
20260502160202 53 21 0.0 3.0 0.00 0.00 0.00 49 1018.2
20260502152114 52 38 1.0 4.0 0.00 0.00 0.00 58 1018.4
20260502151612 53 165 1.0 4.0 0.00 0.00 0.00 53 1018.4
20260502151109 52 320 2.0 6.0 0.00 0.00 0.00 56 1018.4
20260502150607 54 308 4.0 7.0 0.00 0.00 0.00 49 1018.2
20260502130451 42 86 0.0 0.0 0.00 0.00 0.00 99 1018.5
20260502123434 38 86 0.0 0.0 0.00 0.00 0.00 99 1018.7
20260502122931 37 86 0.0 0.0 0.00 0.00 0.00 99 1018.5
20260502122427 37 86 0.0 0.0 0.00 0.00 0.00 99 1018.5
20260502121925 36 86 0.0 0.0 0.00 0.00 0.00 99 1018.3
20260502121422 36 86 0.0 0.0 0.00 0.00 0.00 99 1018.3
20260502120920 36 86 0.0 0.0 0.00 0.00 0.00 99 1018.5
20260502120416 35 86 0.0 0.0 0.00 0.00 0.00 99 1018.3
20260502115913 35 86 0.0 0.0 0.00 0.00 0.00 99 1018.4
20260502115410 34 86 0.0 0.0 0.00 0.00 0.00 99 1018.4
20260502114906 34 86 0.0 0.0 0.00 0.00 0.00 99 1018.6
20260502114403 34 86 0.0 0.0 0.00 0.00 0.00 99 1018.5
20260502113900 34 86 0.0 0.0 0.00 0.00 0.00 99 1018.4
20260502113358 34 86 0.0 0.0 0.00 0.00 0.00 99 1018.5
20260502112856 34 86 0.0 0.0 0.00 0.00 0.00 99 1018.6
20260502112353 33 86 0.0 0.0 0.00 0.00 0.00 99 1018.4
20260502111850 33 86 0.0 0.0 0.00 0.00 0.00 99 1018.3
20260502111348 33 86 0.0 0.0 0.00 0.00 0.00 99 1018.1
20260502110845 33 86 0.0 0.0 0.00 0.00 0.00 99 1017.9
20260502110343 33 86 0.0 0.0 0.00 0.00 0.00 99 1018.3
20260502105840 33 86 0.0 0.0 0.00 0.00 0.00 99 1018.0
20260502105337 33 86 0.0 0.0 0.00 0.00 0.00 99 1018.1
20260502104835 33 86 0.0 0.0 0.00 0.00 0.00 99 1018.1
20260502104332 33 86 0.0 0.0 0.00 0.00 0.00 99 1017.9
20260502103829 33 86 0.0 0.0 0.00 0.00 0.00 99 1018.0
20260502103326 33 86 0.0 0.0 0.00 0.00 0.00 99 1017.9
20260502102824 33 86 0.0 0.0 0.00 0.00 0.00 99 1017.8
20260502102320 33 86 0.0 0.0 0.00 0.00 0.00 99 1017.6
20260502101818 32 86 0.0 0.0 0.00 0.00 0.00 99 1017.9
20260502101316 33 86 0.0 0.0 0.00 0.00 0.00 99 1018.2
20260502100814 33 86 0.0 0.0 0.00 0.00 0.00 99 1018.3
20260502100313 33 86 0.0 0.0 0.00 0.00 0.00 99 1018.4
20260502091247 34 86 0.0 0.0 0.00 0.00 0.00 99 1018.4
20260502090744 34 86 0.0 0.0 0.00 0.00 0.00 99 1018.5
20260502090240 33 86 0.0 0.0 0.00 0.00 0.00 99 1018.6
20260502071141 35 86 0.0 0.0 0.00 0.00 0.00 99 1018.1
20260502070639 35 86 0.0 0.0 0.00 0.00 0.00 99 1017.7
20260502070137 35 86 0.0 0.0 0.00 0.00 0.00 99 1018.0
20260502065635 35 86 0.0 0.0 0.00 0.00 0.00 99 1017.8
20260502065132 35 86 0.0 0.0 0.00 0.00 0.00 99 1017.9
20260502064631 35 86 0.0 0.0 0.00 0.00 0.00 99 1017.8
20260502064128 36 86 0.0 0.0 0.00 0.00 0.00 99 1017.8
20260502063625 36 86 0.0 0.0 0.00 0.00 0.00 99 1018.1
20260502063123 36 86 0.0 0.0 0.00 0.00 0.00 99 1018.1
20260502062620 36 86 0.0 0.0 0.00 0.00 0.00 99 1018.0
20260502062118 36 86 0.0 0.0 0.00 0.00 0.00 99 1018.2
20260502061615 36 86 0.0 0.0 0.00 0.00 0.00 98 1018.4
20260502061113 37 86 0.0 0.0 0.00 0.00 0.00 98 1018.3
20260502060607 37 86 0.0 0.0 0.00 0.00 0.00 98 1018.7
20260502060104 37 86 0.0 0.0 0.00 0.00 0.00 98 1018.5
20260502055601 37 86 0.0 0.0 0.00 0.00 0.00 98 1018.6
20260502055100 37 86 0.0 0.0 0.00 0.00 0.00 98 1018.5
20260502054558 37 86 0.0 0.0 0.00 0.00 0.00 97 1018.5
20260502054055 38 86 0.0 0.0 0.00 0.00 0.00 97 1018.4
20260502053552 38 86 0.0 0.0 0.00 0.00 0.00 97 1018.5
20260502053050 38 86 0.0 0.0 0.00 0.00 0.00 97 1018.6
20260502052548 38 86 0.0 0.0 0.00 0.00 0.00 96 1018.9
20260502052046 38 86 0.0 0.0 0.00 0.00 0.00 96 1018.7
20260502051544 39 86 0.0 0.0 0.00 0.00 0.00 95 1018.5
20260502051041 39 86 0.0 0.0 0.00 0.00 0.00 95 1018.6
20260502050537 40 86 0.0 0.0 0.00 0.00 0.00 95 1018.7
20260502050034 40 86 0.0 0.0 0.00 0.00 0.00 94 1018.9
20260502045531 40 86 0.0 0.0 0.00 0.00 0.00 94 1018.7
20260502045028 41 86 0.0 0.0 0.00 0.00 0.00 94 1018.8
20260502044524 41 86 0.0 0.0 0.00 0.00 0.00 92 1018.7
20260502044021 41 86 0.0 0.0 0.00 0.00 0.00 92 1018.7
20260502043519 42 86 0.0 0.0 0.00 0.00 0.00 92 1018.8
20260502043015 42 86 0.0 0.0 0.00 0.00 0.00 92 1018.6
20260502042510 42 86 0.0 0.0 0.00 0.00 0.00 91 1018.7
20260502042008 42 86 0.0 0.0 0.00 0.00 0.00 90 1018.9
20260502041506 42 86 0.0 0.0 0.00 0.00 0.00 90 1018.7
20260502041002 43 86 0.0 0.0 0.00 0.00 0.00 90 1018.6
20260502040458 43 86 0.0 0.0 0.00 0.00 0.00 88 1018.6
20260502035955 43 86 0.0 0.0 0.00 0.00 0.00 88 1018.5
20260502035451 43 86 0.0 0.0 0.00 0.00 0.00 87 1018.5
20260502034949 44 86 0.0 0.0 0.00 0.00 0.00 87 1018.5
20260502034447 44 86 0.0 0.0 0.00 0.00 0.00 86 1018.4
20260502033945 44 86 0.0 0.0 0.00 0.00 0.00 85 1018.6
20260502033443 45 86 0.0 0.0 0.00 0.00 0.00 84 1018.8
20260502032939 45 86 0.0 0.0 0.00 0.00 0.00 84 1018.6
20260502032436 45 86 0.0 0.0 0.00 0.00 0.00 83 1018.7
20260502031933 45 86 0.0 0.0 0.00 0.00 0.00 83 1018.8
20260502031431 45 86 0.0 0.0 0.00 0.00 0.00 81 1018.7
20260502030929 46 86 0.0 0.0 0.00 0.00 0.00 80 1018.9
20260502030427 46 86 0.0 0.0 0.00 0.00 0.00 80 1018.7
20260502025925 46 86 0.0 0.0 0.00 0.00 0.00 78 1018.7
20260502025421 47 85 0.0 0.0 0.00 0.00 0.00 76 1018.6
20260502024919 48 86 0.0 0.0 0.00 0.00 0.00 76 1018.9
20260502024418 48 85 0.0 0.0 0.00 0.00 0.00 75 1018.6
20260502023915 49 85 0.0 0.0 0.00 0.00 0.00 73 1018.6
20260502023412 49 86 0.0 0.0 0.00 0.00 0.00 73 1018.4
20260502022910 49 86 0.0 0.0 0.00 0.00 0.00 72 1018.7
20260502022406 49 22 0.0 0.0 0.00 0.00 0.00 71 1018.6
20260502021903 50 20 1.0 1.0 0.00 0.00 0.00 69 1018.6
20260502021400 49 35 1.0 2.0 0.00 0.00 0.00 67 1018.5
20260502020857 49 183 0.0 0.0 0.00 0.00 0.00 71 1018.2
20260502020355 49 56 0.0 2.0 0.00 0.00 0.00 69 1018.1
20260502015852 50 130 0.0 0.0 0.00 0.00 0.00 70 1017.8
20260502015349 50 61 0.0 1.0 0.00 0.00 0.00 70 1017.7
20260502014846 50 291 0.0 1.0 0.00 0.00 0.00 68 1017.6
20260502014343 50 324 2.0 8.0 0.00 0.00 0.00 67 1017.4
20260502013839 51 322 1.0 3.0 0.00 0.00 0.00 67 1017.3
20260502013335 51 23 1.0 6.0 0.00 0.00 0.00 67 1017.4
20260502012831 51 17 2.0 4.0 0.00 0.00 0.00 66 1017.2
20260502012330 52 50 1.0 4.0 0.00 0.00 0.00 67 1017.0
20260502011826 52 276 0.0 3.0 0.00 0.00 0.00 68 1017.0
20260502011323 52 240 1.0 3.0 0.00 0.00 0.00 69 1017.0
20260502010820 53 338 1.0 3.0 0.00 0.00 0.00 69 1016.6
20260502010316 52 339 3.0 6.0 0.00 0.00 0.00 68 1016.6